This is the latest recevied weather packets stored in our database for station/object IZ5MJO-13. If no packets are shown the sender has not sent any weather packets the latest 10 day(s).
| Time | Temp. | Humidity | Pressure | Rain* | Wind** | Luminosity | Snow |
|---|---|---|---|---|---|---|---|
| 1787873699 | 26.11° C | 63% | 1008.6 hPa | - | - | - | - |
| 1787872799 | 26.11° C | 62% | 1009 hPa | - | - | - | - |
| 1787871898 | 26.11° C | 59% | 1009.2 hPa | - | - | - | - |
| 1787870998 | 26.67° C | 55% | 1008.9 hPa | - | - | - | - |
| 1787870098 | 27.22° C | 60% | 1008.7 hPa | - | - | - | - |
| 1787869197 | 27.22° C | 54% | 1008.5 hPa | - | - | - | - |
| 1787868297 | 27.22° C | 55% | 1008.4 hPa | - | - | - | - |
| 1787867397 | 27.22° C | 58% | 1008.3 hPa | - | - | - | - |
| 1787866497 | 27.78° C | 53% | 1008.4 hPa | - | - | - | - |
| 1787865597 | 27.78° C | 56% | 1008.3 hPa | - | - | - | - |
| 1787864697 | 27.78° C | 54% | 1007.9 hPa | - | - | - | - |
| 1787863796 | 28.33° C | 52% | 1008 hPa | - | - | - | - |
| 1787862896 | 28.33° C | 55% | 1008.1 hPa | - | - | - | - |
| 1787861996 | 28.33° C | 56% | 1007.8 hPa | - | - | - | - |
| 1787861096 | 28.33° C | 54% | 1008.1 hPa | - | - | - | - |
| 1787860195 | 28.89° C | 53% | 1008.1 hPa | - | - | - | - |
| 1787859295 | 28.89° C | 53% | 1008.3 hPa | - | - | - | - |
| 1787858395 | 29.44° C | 50% | 1008.1 hPa | - | - | - | - |
| 1787857495 | 29.44° C | 48% | 1007.9 hPa | - | - | - | - |
| 1787856594 | 30° C | 48% | 1007.7 hPa | - | - | - | - |
| 1787855693 | 30° C | 49% | 1007.4 hPa | - | - | - | - |
| 1787854793 | 30° C | 46% | 1007.4 hPa | - | - | - | - |
| 1787853893 | 30° C | 47% | 1007.3 hPa | - | - | - | - |
| 1787852999 | 30.56° C | 44% | 1007.2 hPa | - | - | - | - |
| 1787852099 | 31.67° C | 42% | 1007.3 hPa | - | - | - | - |
* Rain since midnight (hover to see other rain measurements)
** Current wind speed in m/s (hover to see current wind gust speed)